Theta_e
342 342 342 342 342 343 346 347 347 348 349 350 350 350 349 349 349 349 348 348 347 340 338 338 339 340 347 341 348 346 346 346 346 345 345 346 346 346 346 345 345 344 343 343 343 343 343 343 344 345 345 342 339 331 331 332 333 334 333 334 335 333
341 341 342 343 343 344 346 347 342 342 343 346 348 349 347 345 350 342 348 345 341 344 339 337 338 347 342 344 344 347 346 346 346 345 344 345 345 345 346 345 345 345 344 344 344 336 334 337 341 344 346 341 332 330 331 332 332 332 332 331 334 335
340 340 342 343 343 344 343 342 341 342 345 347 347 346 343 345 340 341 343 343 342 338 338 338 338 343 342 346 345 346 346 346 346 345 346 345 345 345 345 345 345 345 345 345 340 332 330 327 327 340 341 334 330 330 330 331 331 331 330 332 329 336
340 341 342 342 342 341 341 341 341 341 342 342 341 342 340 341 340 341 342 339 337 337 334 333 347 347 346 341 342 346 347 346 346 345 345 345 347 345 345 345 345 346 345 342 336 333 331 329 328 326 330 332 330 329 329 330 329 329 330 334 331 336
340 341 341 342 341 340 340 340 340 340 340 340 339 338 336 336 336 337 337 337 336 338 336 334 333 335 338 336 336 338 340 339 336 335 345 333 333 338 339 335 335 338 336 337 337 334 330 330 330 329 331 332 330 329 329 330 329 328 329 331 333 336
341 341 342 341 340 342 341 339 338 340 339 339 338 335 335 336 335 337 336 337 337 333 334 334 334 335 337 335 336 336 336 336 334 334 340 335 333 332 331 333 334 335 337 338 338 335 332 333 332 331 329 332 330 329 328 327 328 328 328 329 334 336
340 341 341 341 341 341 339 339 338 338 337 336 336 334 335 336 337 337 337 339 335 333 333 333 333 335 336 336 335 335 334 335 334 334 336 336 333 333 334 334 334 335 335 338 339 336 334 332 332 332 330 331 329 328 327 327 327 327 328 329 335 336
340 341 341 342 340 340 339 338 339 341 337 340 336 335 334 335 337 337 337 337 338 335 333 333 334 334 335 335 335 334 333 333 333 333 334 336 334 332 335 334 335 334 336 338 337 335 334 334 333 333 331 329 328 327 327 327 327 327 327 329 331 335
340 340 340 341 339 338 338 337 336 335 336 341 334 335 335 335 335 336 337 338 339 335 333 333 334 334 335 335 335 334 333 332 331 332 332 333 333 331 332 334 334 334 334 334 333 333 333 333 333 333 330 329 328 327 327 327 327 327 327 328 329 334
339 339 340 340 338 337 337 336 335 335 335 339 333 333 334 334 334 336 336 336 336 336 334 334 334 335 335 334 334 335 334 333 331 331 332 330 330 330 330 332 333 334 334 333 332 332 332 331 332 331 329 329 328 328 327 327 327 327 327 327 329 334
340 341 339 338 337 337 338 335 335 334 335 335 334 335 334 334 334 334 335 335 335 337 336 336 335 335 335 335 334 334 333 333 332 332 332 331 329 330 331 332 332 331 332 332 333 333 333 331 329 329 330 329 328 328 327 327 327 327 327 327 328 331
339 338 338 338 338 337 337 336 337 335 335 335 335 334 334 334 335 334 334 334 334 336 338 336 335 334 335 335 334 334 332 333 333 334 335 333 330 329 330 332 333 332 331 331 332 332 332 330 327 326 330 329 329 328 327 327 327 327 327 327 329 330
339 337 336 337 337 336 336 337 337 336 335 336 334 334 333 334 333 334 334 334 335 336 336 335 333 333 336 334 333 333 333 333 334 335 335 335 334 332 330 329 329 331 331 331 330 330 330 329 328 328 328 329 329 328 328 327 327 327 327 328 329 329
337 336 336 336 335 335 336 336 334 332 336 335 334 332 334 332 333 332 333 334 334 336 336 335 335 334 334 333 333 332 332 333 334 335 335 334 334 333 331 329 328 329 334 328 326 327 329 329 331 331 329 330 329 328 328 328 327 327 328 328 328 328
337 335 338 335 336 336 335 335 334 334 334 335 333 333 333 331 331 331 333 332 334 335 336 336 336 335 335 333 333 332 332 333 334 334 335 335 335 334 331 331 330 328 326 327 327 329 330 330 330 329 330 329 329 329 329 328 328 327 327 327 327 327
335 335 333 333 333 335 336 334 333 337 332 334 335 333 333 333 332 332 333 333 334 335 335 334 336 335 334 333 333 333 333 334 334 334 334 334 335 333 333 332 331 328 326 327 327 328 329 328 329 330 330 329 330 330 329 328 327 327 327 327 326 327
334 333 333 333 333 334 334 333 333 335 333 332 333 333 333 334 334 334 332 331 332 335 335 335 337 338 336 335 333 333 333 334 335 333 333 333 333 333 332 331 329 329 329 327 328 328 328 327 328 330 330 330 330 330 328 328 327 326 327 326 325 327
333 333 332 332 332 333 334 334 333 332 334 332 333 335 335 336 335 334 332 332 331 334 336 336 336 337 337 336 334 333 334 335 334 332 332 332 332 333 332 332 330 330 331 330 328 328 327 326 327 328 328 330 329 329 329 328 328 331 326 325 326 326
335 334 333 333 332 332 332 332 331 331 330 331 332 333 335 335 336 335 335 334 333 335 336 334 335 336 336 336 334 332 332 334 334 332 331 331 331 332 332 332 330 330 331 330 328 328 328 326 327 327 327 328 328 330 329 330 330 328 327 327 327 328
333 332 332 331 331 329 329 332 332 329 328 329 331 332 335 336 335 335 336 335 335 334 334 336 334 334 334 335 332 332 332 332 333 332 331 329 329 330 330 330 330 330 329 329 329 328 327 326 325 324 326 327 327 328 330 330 329 328 327 328 329 330
331 331 331 330 327 326 327 330 329 328 327 327 329 330 333 334 334 335 335 335 335 334 334 335 336 334 334 336 335 331 330 331 332 333 332 331 330 330 330 330 330 330 329 327 327 328 326 326 324 322 323 324 323 326 330 329 328 328 328 329 330 330
330 330 330 331 329 329 327 326 326 327 328 327 329 328 331 332 333 335 335 335 335 335 334 334 336 334 335 334 334 332 331 330 331 332 333 332 330 332 331 330 329 327 328 327 326 328 327 326 321 320 321 321 320 322 326 327 326 329 328 328 329 330
329 329 327 330 329 328 329 332 329 328 327 327 330 332 331 332 334 334 334 335 336 335 335 334 334 335 334 334 333 332 331 331 331 331 331 330 330 331 330 329 328 327 326 327 328 329 327 326 319 320 320 317 316 316 318 323 325 327 329 328 328 329
329 330 329 328 332 329 330 333 332 331 332 331 331 331 330 330 331 331 333 335 335 335 335 335 334 334 334 333 333 332 331 330 330 330 330 329 329 330 331 329 328 328 327 324 325 326 328 327 325 321 314 317 315 315 310 316 320 323 328 327 327 327
333 333 331 331 334 330 330 330 328 330 329 328 327 327 326 328 328 329 332 330 333 334 334 334 334 333 334 332 332 333 332 331 330 330 330 329 329 330 332 332 330 328 327 326 324 324 326 327 326 327 322 317 313 312 314 315 320 319 324 325 326 327
331 331 332 333 333 332 330 328 328 327 326 323 324 325 325 326 327 328 330 332 331 332 332 333 333 333 333 333 332 333 333 332 331 330 330 330 330 329 329 331 331 329 328 329 327 324 322 326 327 327 326 324 321 316 316 315 318 314 320 324 324 327
328 328 329 328 329 331 329 329 328 327 326 324 323 325 327 328 328 328 330 331 332 333 332 332 333 333 332 333 332 332 332 332 330 330 332 331 328 329 331 332 333 330 329 329 328 324 323 323 326 327 327 327 326 325 322 319 315 316 316 321 323 324
327 327 326 327 328 329 328 327 327 327 328 326 327 327 329 329 330 331 330 331 331 331 332 332 331 332 333 333 334 333 332 330 330 330 331 332 331 331 331 332 331 332 331 330 328 326 325 324 323 323 326 326 326 326 327 324 320 320 317 316 319 323
325 326 326 327 327 326 327 326 326 326 325 325 326 326 328 329 329 330 329 329 329 329 329 329 331 332 332 333 333 332 332 332 330 329 330 331 332 333 332 332 331 330 328 328 329 329 326 324 324 323 324 325 325 324 325 325 323 321 316 316 316 320
324 324 324 324 325 324 325 326 325 325 324 323 324 325 325 325 327 327 327 328 328 328 326 328 329 330 329 330 331 331 331 330 328 329 330 330 332 332 333 332 330 330 331 329 328 328 327 326 326 326 324 325 323 324 323 322 321 320 318 319 316 319
322 323 324 323 324 323 324 324 323 323 323 323 323 323 323 323 326 326 326 326 327 327 326 327 327 328 328 329 329 331 330 330 330 330 330 330 331 332 332 331 330 331 331 329 328 328 327 327 327 326 326 325 324 324 322 320 320 320 320 318 318 318
319 320 321 322 323 323 323 323 323 323 322 323 323 322 322 323 325 325 326 326 325 325 325 325 325 325 326 327 328 327 330 330 329 329 329 329 329 330 331 330 329 328 328 330 330 329 328 327 327 326 326 327 327 326 325 324 324 323 321 320 320 318
316 317 318 319 319 321 321 321 321 321 322 323 322 322 322 323 325 325 326 327 325 325 325 325 325 326 326 326 326 326 327 328 327 328 329 329 329 330 331 332 331 330 329 328 329 329 328 328 328 326 326 328 328 327 326 327 326 325 325 323 321 317
314 313 314 316 317 318 319 319 320 320 320 320 320 321 322 322 322 323 325 327 327 326 325 326 327 327 327 328 327 326 327 328 328 328 328 328 328 328 329 329 329 328 329 329 329 329 328 328 328 328 329 327 327 327 328 327 326 326 325 322 319 318
312 313 313 314 315 315 316 316 318 320 320 320 320 321 321 322 322 322 323 323 324 326 325 326 327 328 328 327 327 327 327 327 327 327 327 327 328 329 329 329 330 330 330 330 329 328 327 328 328 328 328 328 328 328 328 329 327 326 327 325 323 321
312 312 313 314 314 314 314 315 317 319 320 321 319 319 319 320 321 321 321 321 321 322 324 325 326 327 328 328 327 326 327 327 326 327 327 327 327 328 328 329 329 329 328 330 329 329 328 327 327 329 329 329 328 328 329 329 329 328 327 327 325 323
312 312 312 313 312 313 313 313 314 315 317 316 315 316 317 316 317 318 319 319 319 320 322 323 323 324 325 327 328 328 327 326 326 326 326 327 327 327 328 328 329 328 328 328 328 327 328 327 328 328 328 328 327 327 328 328 329 328 327 326 325 324
Wind_Speed
6 6 6 6 5 5 8 11 9 11 12 12 10 10 10 10 10 9 8 8 7 4 3 3 3 3 5 3 5 6 6 6 6 6 5 4 4 3 2 1 2 3 6 7 7 7 6 5 4 3 7 9 11 7 5 5 6 5 4 5 4 5
6 7 6 5 4 4 4 7 4 4 4 7 8 8 6 4 5 3 8 6 4 4 3 3 3 5 3 4 4 6 7 7 6 5 4 3 2 2 2 2 2 4 6 7 8 4 4 5 5 4 7 8 8 6 5 5 5 5 5 4 4 6
6 6 7 6 5 5 5 5 5 5 5 7 6 5 4 4 2 3 4 4 3 1 1 2 3 3 3 6 5 8 8 8 7 5 4 3 2 2 2 2 3 5 6 6 4 4 4 4 4 7 7 6 6 5 5 5 4 5 5 4 4 9
7 7 7 6 5 5 5 5 5 5 5 5 4 4 4 4 4 3 4 4 4 2 1 1 4 6 8 3 4 8 10 8 7 6 6 3 1 0 3 3 3 5 4 2 3 4 4 5 4 3 2 6 5 5 5 5 4 4 5 5 4 11
6 6 6 6 5 5 5 5 5 5 5 4 4 3 2 1 2 3 4 3 3 3 2 1 1 3 1 3 2 2 4 4 4 3 5 4 3 1 0 0 1 3 3 2 3 4 3 5 4 2 3 4 6 5 5 5 4 4 5 5 5 12
6 6 6 6 5 4 5 5 5 5 4 4 4 4 3 3 2 3 2 2 2 2 2 1 1 2 0 2 3 4 4 4 4 3 3 4 4 3 2 2 2 2 4 2 3 4 4 3 5 4 5 3 6 6 6 5 4 4 5 5 6 13
6 6 7 6 4 4 4 3 3 4 5 4 4 3 2 2 2 2 3 3 4 2 2 2 2 1 0 0 3 3 4 4 4 4 3 4 3 3 3 4 4 3 3 3 4 4 5 3 4 5 4 4 5 6 6 5 5 5 5 5 6 13
6 6 6 6 5 3 3 4 4 4 4 5 4 3 2 2 1 1 2 4 3 3 4 4 3 2 3 0 2 2 2 2 3 3 3 4 4 4 4 4 3 3 3 4 5 5 5 4 4 5 3 5 5 6 6 6 5 5 5 5 4 10
7 7 7 7 5 3 3 4 4 4 4 4 3 4 4 2 2 2 2 4 5 5 4 3 4 4 2 3 3 3 2 2 2 4 4 4 4 4 4 4 4 4 4 4 5 5 5 6 5 6 2 6 6 6 6 6 5 5 5 5 6 8
6 7 7 7 5 5 4 5 5 5 4 5 4 3 3 3 4 4 3 3 3 4 4 4 4 4 4 3 2 3 2 2 2 3 4 5 5 5 5 4 4 4 4 4 5 5 4 6 6 8 4 8 8 8 7 7 6 6 5 5 6 6
5 6 6 7 6 5 4 3 4 4 4 5 4 4 4 5 4 4 4 2 2 2 2 3 4 4 4 4 4 2 3 2 3 3 4 5 3 5 5 5 5 5 5 5 5 5 4 5 5 6 5 8 8 7 7 6 6 6 5 5 6 5
5 6 6 6 5 5 5 5 4 4 5 4 4 5 5 5 4 4 2 2 2 3 4 4 3 4 4 4 4 4 2 3 5 3 3 3 2 2 3 4 4 3 4 4 5 5 3 3 5 4 1 7 7 8 7 7 7 7 6 5 5 5
5 5 6 6 6 5 4 4 3 4 3 2 3 3 3 3 2 3 2 2 3 3 3 3 4 3 3 4 3 3 4 5 5 4 4 3 2 2 1 1 2 1 2 1 1 3 3 1 4 8 9 4 6 7 7 7 7 6 7 6 6 5
4 5 5 5 4 4 4 3 2 3 3 1 0 2 4 4 3 2 2 3 3 4 4 4 4 4 4 4 4 4 5 5 4 4 3 2 4 3 3 1 1 2 2 1 1 1 2 3 3 2 6 6 6 7 7 7 7 7 7 6 5 5
5 4 4 4 4 4 3 2 2 3 3 1 1 3 3 1 2 2 3 4 4 4 4 4 3 4 3 3 4 4 5 5 4 4 4 4 4 4 3 4 2 3 1 0 1 1 1 1 2 3 2 5 6 7 7 7 7 7 7 6 6 5
5 4 3 3 3 3 3 3 2 3 2 1 1 2 3 3 2 3 3 3 4 4 3 3 3 3 3 3 4 5 6 4 4 4 4 4 4 4 4 3 2 2 3 3 1 1 4 4 3 1 1 0 8 5 8 7 7 7 7 6 6 6
6 4 3 3 2 2 3 3 3 2 2 2 2 3 4 4 3 4 4 4 3 3 3 4 4 4 4 4 4 5 5 5 5 5 5 5 5 4 4 3 2 2 3 4 4 3 4 6 3 2 1 2 4 8 6 8 7 7 6 7 6 6
4 4 3 4 3 3 3 2 2 2 2 3 3 3 4 3 4 4 2 4 3 3 3 4 4 4 5 5 5 5 5 3 2 5 5 5 4 3 3 4 4 4 4 5 4 5 6 5 3 3 3 3 7 4 5 8 5 7 8 7 6 6
5 5 4 3 2 1 1 0 0 0 2 3 4 3 3 4 4 4 4 4 3 4 4 3 4 4 5 5 5 5 4 4 4 4 6 6 5 4 5 5 6 5 4 4 4 5 6 4 3 4 3 4 4 2 2 3 8 3 7 8 8 7
4 4 4 3 3 2 1 0 1 2 4 4 5 3 3 5 5 5 5 5 4 4 4 4 4 4 4 4 5 5 5 5 5 5 7 7 7 6 7 6 7 7 6 3 3 4 3 3 3 2 2 3 4 1 3 2 2 6 2 7 7 6
3 4 4 4 2 2 1 1 1 3 4 4 3 3 4 4 5 5 5 5 5 5 4 4 4 4 5 5 5 5 5 5 6 6 6 7 6 5 5 5 5 5 7 5 3 3 2 4 4 1 2 4 4 2 2 1 1 3 4 3 5 6
4 3 3 2 2 1 2 2 3 4 4 5 4 3 5 5 5 5 5 4 4 4 4 5 5 4 5 5 6 5 5 6 5 5 6 5 4 5 4 5 5 5 4 7 5 6 4 4 2 5 5 4 0 2 3 3 2 3 5 5 5 6
3 3 2 2 1 1 2 3 3 3 4 3 4 4 4 4 3 4 5 5 5 5 5 6 5 5 5 5 6 6 6 6 5 6 7 7 5 5 6 7 7 6 4 2 4 6 8 8 4 3 2 3 3 3 3 4 4 4 6 7 5 6
1 0 0 0 1 3 3 3 3 3 3 3 4 2 2 3 2 2 4 5 5 6 6 6 5 5 5 6 6 7 6 4 5 4 5 6 7 7 7 7 6 6 4 4 4 5 6 7 5 8 3 6 3 3 2 7 7 5 7 6 7 7
0 2 2 2 2 2 1 2 2 3 2 3 2 3 3 4 2 2 3 4 7 5 6 6 5 6 6 7 6 6 6 6 6 6 5 5 7 9 5 5 6 6 7 8 7 5 5 5 7 8 7 4 1 2 5 3 6 4 4 4 6 7
7 6 6 5 4 3 3 2 1 3 4 3 4 5 5 4 4 4 4 4 2 4 5 4 5 5 4 3 6 6 7 6 6 5 5 6 6 5 7 10 7 8 8 8 7 5 5 5 8 8 7 5 5 5 5 3 5 5 2 3 4 6
6 5 5 5 6 6 5 5 3 2 1 2 2 3 3 4 4 4 3 4 4 4 3 4 4 3 4 4 5 6 6 6 4 2 4 6 7 8 7 8 6 6 8 8 6 7 8 7 4 6 7 7 3 1 2 6 5 3 3 3 4 5
6 6 5 5 7 7 6 5 5 5 5 7 6 6 6 5 5 4 5 6 6 5 4 4 5 6 4 4 4 5 5 5 5 6 6 7 8 8 7 6 7 9 7 6 7 8 8 6 8 6 7 8 7 3 3 2 1 7 5 6 5 3
7 6 6 7 7 7 6 5 5 5 6 5 5 5 5 5 6 6 6 6 6 5 4 2 2 3 4 5 5 5 5 5 4 5 6 7 7 8 9 8 7 6 6 7 7 8 5 6 6 7 6 8 7 6 5 4 2 1 3 5 5 8
7 6 6 7 7 7 7 6 8 8 8 7 6 6 6 7 6 5 6 7 6 5 4 4 4 3 3 3 3 4 5 5 5 6 6 7 8 8 9 7 7 8 8 7 5 5 6 5 7 6 4 6 8 7 6 4 5 4 1 3 5 8
8 6 7 7 6 7 6 7 7 7 7 8 8 8 9 9 7 7 7 6 6 6 5 6 5 5 4 4 3 3 4 5 5 6 7 7 6 7 7 6 4 6 6 7 6 8 8 7 6 6 7 6 8 8 9 9 9 7 6 4 4 5
8 7 7 6 6 6 6 6 6 5 7 7 8 7 7 7 7 7 7 7 6 5 6 5 6 6 6 4 3 3 4 5 6 6 7 6 6 6 6 5 6 7 8 8 7 7 7 9 10 8 9 8 8 8 8 8 8 8 9 7 8 6
6 6 6 6 6 5 6 7 6 6 7 7 7 6 6 6 6 6 6 7 7 7 6 6 6 6 7 4 2 4 5 5 6 6 6 6 6 6 6 5 6 6 6 8 8 8 8 9 9 9 9 9 8 8 10 9 6 8 7 6 7 6
3 3 4 5 5 5 5 5 5 5 5 5 4 4 4 5 5 5 6 6 6 5 5 6 6 6 5 6 5 5 5 6 6 6 6 6 5 5 6 6 5 6 7 8 6 8 9 10 9 10 8 8 9 10 9 7 7 6 8 7 6 8
3 2 3 3 3 4 3 4 5 4 4 3 4 4 4 4 5 6 6 6 6 6 6 7 7 6 6 6 6 6 5 6 6 6 5 6 6 6 6 6 6 6 5 5 8 8 8 9 9 10 10 10 9 9 10 9 7 9 8 9 9 8
2 0 2 2 2 3 4 3 4 4 4 3 3 4 5 5 5 5 5 6 6 7 7 7 8 8 8 7 7 6 6 6 6 6 6 6 6 6 5 6 6 5 7 6 7 8 8 9 11 11 11 10 10 10 9 8 9 9 9 9 8 7
1 0 1 1 1 2 3 4 4 4 4 4 4 4 4 4 6 6 6 6 6 7 7 8 8 8 9 9 8 7 7 7 7 7 6 6 6 6 6 6 6 7 8 7 6 8 8 8 8 8 8 9 8 8 8 8 8 8 8 7 7 7
Wind_Direction
104 107 103 102 111 124 135 138 133 133 135 125 126 133 141 147 146 149 142 133 112 102 117 125 139 147 146 140 136 129 120 114 94 91 96 101 117 122 131 193 299 300 304 302 306 309 313 316 316 51 72 88 105 109 121 122 122 126 124 125 127 145
123 120 119 119 125 128 133 127 125 123 128 133 138 147 149 154 150 146 149 137 139 153 171 172 181 168 162 157 147 145 139 122 118 107 105 111 134 145 171 189 257 277 288 293 298 316 325 318 328 38 85 114 122 129 131 129 129 135 130 134 136 139
132 130 126 128 130 134 134 134 128 131 139 140 144 149 157 153 154 166 153 145 112 77 210 200 183 189 186 167 163 155 149 143 133 136 130 137 122 173 213 211 249 271 276 287 306 318 314 317 323 64 87 103 122 131 130 127 137 140 141 143 141 144
140 139 133 137 134 142 147 138 141 140 144 149 153 149 161 171 191 178 149 125 117 123 87 323 271 221 191 186 175 165 157 152 150 146 159 130 88 228 236 251 255 275 291 309 313 308 313 311 315 80 79 120 122 129 131 136 155 153 146 142 145 142
144 138 133 136 143 153 155 147 149 151 153 151 151 147 125 132 147 145 143 134 144 157 169 180 309 331 276 172 180 157 149 134 130 152 155 148 138 162 318 315 318 302 299 300 310 298 306 306 309 28 110 143 136 140 140 146 164 160 150 143 149 149
142 139 131 136 148 160 153 157 162 157 144 148 143 153 170 163 171 153 140 124 123 145 184 184 134 293 336 186 182 193 169 152 149 177 174 161 155 177 209 199 199 260 274 292 278 279 274 277 291 305 114 183 153 152 148 153 168 169 153 153 159 153
131 134 128 129 137 144 152 149 131 133 139 150 145 145 162 181 194 163 138 140 145 183 194 196 208 256 274 221 208 206 187 173 169 180 196 165 174 189 200 199 198 220 250 269 271 270 268 257 257 269 124 179 174 150 150 156 167 170 160 160 159 153
126 128 128 130 121 114 117 132 139 138 140 148 136 145 181 223 232 194 176 163 158 174 193 197 209 232 225 278 240 204 182 189 180 191 194 180 184 195 207 212 208 205 219 243 257 262 271 259 255 265 134 165 170 148 151 155 168 169 163 163 156 154
123 122 123 125 118 126 139 134 129 146 152 159 142 160 187 215 251 236 214 171 164 172 198 205 202 218 216 208 204 191 142 177 212 218 189 203 193 196 207 213 220 217 201 223 237 253 258 272 269 270 169 166 167 153 150 155 165 171 166 165 155 154
125 122 124 124 140 150 175 163 164 181 175 164 175 187 183 208 219 227 228 200 190 171 187 194 208 214 212 231 224 202 191 175 185 230 221 208 196 189 207 209 227 230 219 222 235 242 242 264 265 259 165 167 170 164 159 159 167 173 171 166 160 157
121 120 128 131 144 158 185 198 189 185 193 185 169 181 207 217 216 220 220 201 211 198 193 216 206 206 208 207 225 212 223 245 231 232 225 225 185 195 198 206 211 220 226 229 235 240 236 256 268 252 159 168 168 157 159 162 166 169 168 168 162 157
126 131 131 137 144 162 185 198 213 203 203 195 158 179 211 225 220 228 222 204 207 215 205 213 207 206 200 194 208 211 215 225 250 240 234 240 199 181 210 229 222 218 229 226 239 254 271 320 332 318 274 171 162 162 163 166 171 171 166 167 162 154
140 132 140 149 160 176 190 198 206 226 235 205 149 156 204 217 208 218 201 193 217 222 223 211 221 222 216 211 206 216 229 229 232 240 254 256 234 181 188 263 278 304 290 298 336 14 26 45 13 349 322 254 168 166 164 166 170 167 167 166 164 158
138 140 151 155 156 175 196 201 211 247 250 248 143 201 207 199 209 215 196 208 219 231 224 220 214 226 217 212 206 212 229 236 226 217 221 250 269 253 232 238 277 16 55 88 155 207 34 30 39 0 310 253 201 173 168 170 171 171 165 168 163 159
145 152 154 158 167 184 192 189 210 242 253 239 222 241 256 217 203 214 194 212 216 222 224 220 223 225 231 220 229 230 228 228 217 221 216 211 223 250 236 235 223 263 254 257 170 107 109 142 190 216 291 307 256 177 172 173 168 163 169 166 159 165
146 152 140 155 181 188 178 193 203 223 242 229 218 261 267 233 205 203 199 203 207 212 214 225 229 230 241 229 230 241 245 246 210 212 230 229 212 224 230 244 228 174 236 266 253 198 161 202 253 87 142 69 299 269 179 168 168 168 167 161 168 166
147 153 152 162 169 184 181 197 204 224 228 223 222 245 252 254 237 212 202 205 206 211 212 214 219 217 224 231 228 235 245 246 252 223 202 199 208 207 203 220 218 186 188 236 222 219 202 204 170 138 293 210 240 297 284 172 170 167 158 165 169 167
142 154 162 174 189 189 194 173 192 199 213 221 229 223 236 242 254 248 222 220 206 214 219 213 215 210 218 227 227 229 241 237 279 289 278 256 234 188 205 197 215 203 199 208 223 215 223 213 156 168 225 209 222 215 324 306 177 158 164 164 166 175
147 150 161 159 153 131 160 122 58 216 295 280 270 246 227 227 231 227 226 226 216 221 226 220 214 207 208 223 225 233 222 229 204 213 252 252 239 209 199 198 210 209 202 207 191 204 217 211 168 181 187 201 234 106 139 321 313 200 165 168 170 179
97 103 102 91 89 83 62 339 260 309 293 269 262 257 231 222 214 210 215 209 215 214 221 221 219 212 215 221 219 217 210 208 230 213 208 220 218 206 201 195 207 205 206 208 200 188 198 170 195 215 202 95 42 317 172 197 124 319 262 160 172 164
89 86 99 103 95 125 146 294 300 238 243 245 238 233 242 231 223 221 210 205 205 208 209 220 220 210 222 230 228 230 219 217 210 218 219 228 225 218 207 201 201 198 201 197 200 201 202 156 144 135 76 68 80 282 338 77 48 139 291 243 162 169
88 93 113 144 189 179 191 182 183 218 224 242 240 233 245 242 226 229 225 220 217 212 213 219 223 219 228 228 236 233 230 228 216 223 233 240 235 225 212 207 191 210 205 197 197 185 194 117 157 173 165 156 309 298 308 316 209 185 192 239 183 171
107 127 148 153 141 203 241 245 210 245 202 256 250 241 233 241 230 220 227 226 218 212 207 212 214 213 223 227 232 236 238 233 220 213 224 233 234 232 208 213 199 202 205 211 188 181 178 187 166 141 95 117 213 185 271 267 238 215 192 193 191 177
39 21 14 214 206 222 222 265 283 258 270 224 258 265 254 271 264 268 257 233 225 210 202 204 197 203 213 217 219 228 240 240 244 225 228 231 232 232 218 213 207 214 197 207 202 216 185 188 154 141 173 207 196 145 196 226 204 210 198 179 180 187
99 340 336 310 276 252 248 296 318 328 347 343 352 348 343 313 276 231 233 224 230 210 204 207 202 200 204 211 216 226 235 229 236 238 225 236 232 238 232 240 217 202 201 214 223 206 209 192 192 189 147 122 92 224 218 200 167 237 176 177 196 185
49 41 26 1 341 341 325 293 1 4 338 351 321 329 328 310 317 319 299 283 256 200 206 212 210 210 203 215 225 226 232 227 227 232 230 234 252 262 235 237 223 210 222 220 214 195 192 205 214 212 208 187 158 180 183 205 140 226 187 207 165 188
56 48 34 25 27 32 34 24 3 331 326 318 336 322 327 324 314 307 309 318 312 320 281 247 241 222 226 221 228 232 231 232 223 243 238 228 226 240 236 236 230 218 222 224 204 212 206 200 185 238 225 229 221 209 162 140 203 103 174 204 177 181
52 46 34 31 34 28 37 24 26 30 35 24 16 3 355 346 352 347 351 356 346 329 335 344 338 326 315 283 251 244 243 234 222 218 231 244 231 225 230 218 228 238 236 232 213 218 217 189 190 212 207 221 223 216 253 291 201 179 159 172 198 198
58 49 39 41 45 35 31 26 31 31 34 25 14 7 348 3 9 3 15 3 10 5 4 342 274 278 270 265 255 236 237 245 226 231 242 252 250 236 228 224 220 233 223 226 224 227 218 214 214 222 195 219 217 216 209 231 247 142 146 167 195 184
55 54 47 42 46 47 37 32 35 31 30 21 13 4 10 5 360 359 13 6 354 3 357 346 313 287 288 284 280 265 242 239 232 246 242 246 256 255 240 231 214 233 225 223 231 251 239 222 225 236 223 241 206 206 214 233 251 215 198 194 174 192
37 39 39 42 42 44 43 41 41 32 31 27 16 16 10 2 353 359 6 3 354 341 337 325 317 313 307 295 289 286 278 247 227 234 247 248 249 252 254 246 225 232 243 227 221 226 225 223 224 225 218 221 227 211 200 202 206 198 186 174 171 195
36 32 31 26 32 41 47 45 44 37 36 31 23 18 9 354 351 347 354 355 342 339 337 325 317 315 313 318 317 311 289 262 257 255 251 248 252 254 248 217 215 226 238 242 235 226 226 227 220 217 214 216 225 223 235 224 208 189 188 199 183 183
38 31 33 34 33 27 43 42 35 32 34 27 22 14 2 358 356 345 353 347 345 343 335 335 328 319 313 305 283 290 288 273 260 255 264 271 265 261 257 230 211 206 220 236 231 228 230 231 224 218 219 218 222 222 227 231 220 198 201 184 182 172
52 22 47 47 43 38 32 29 22 29 34 25 16 4 1 3 351 353 356 344 344 343 334 328 318 316 302 300 300 292 285 273 264 265 261 258 261 266 269 263 246 228 220 228 233 233 234 236 230 226 221 221 220 226 233 221 219 223 195 176 184 191
77 66 85 80 70 66 52 36 27 23 33 28 21 12 16 8 1 5 356 352 352 349 351 340 334 318 318 310 301 302 285 272 278 277 273 268 266 264 261 262 260 255 248 234 228 227 234 241 240 234 228 224 224 222 225 226 213 222 210 197 188 180
130 78 52 63 82 95 76 68 58 46 37 36 23 23 19 9 9 5 355 357 352 353 353 348 345 343 333 326 316 308 295 281 280 279 272 267 266 262 257 256 258 250 250 244 248 236 229 227 238 242 239 230 224 223 219 219 220 220 219 205 192 179
191 288 6 21 8 17 42 48 32 40 40 32 26 35 25 20 13 6 359 360 359 353 356 3 351 350 345 340 333 314 307 305 300 293 290 277 267 262 258 254 258 258 258 248 234 242 238 234 232 230 236 238 229 222 220 218 223 222 219 212 197 177